Location: Dessau
(51.7984°N, 12.2168°E)
Time: 09:54:38
(UTC+02:00)

ISS - Pass Details

Date: 12 February 2018
Orbit: 402 x 406 km, 51.6° (Epoch: 18 June)

Event Time Altitude Azimuth Distance (km) Brightness Sun altitude
Rises 18:25:58 0° 280° (W) 2,321 1.6 -10.7°
Reaches altitude 10° 18:28:38 10° 256° (WSW) 1,458 0.6 -11.1°
Maximum altitude 18:30:38 15° 219° (SW) 1,175 -0.8 -11.4°
Drops below altitude 10° 18:32:39 10° 180° (S) 1,454 -0.9 -11.7°
Enters shadow 18:36:24 -3° 152° (SSE) 2,722 0.2 -12.3°
